User: anonymous   Login
Location: Unspecified
(0.0000°N, 0.0000°E)
Time: 09:56:36
(UTC+02:00)
Language:

Atlas Centaur 2 - Orbit

View from above orbital plane
View from above orbital plane
View from above satellite
View from above satellite

Ground track
Ground track

The orbit data is extracted from the following two-line orbital elements,

1 00694U 63047A   15242.91060873  .00001113  00000-0  13649-3 0  9999
2 00694 030.3548 173.5179 0591454 100.9359 309.8468 14.01222202590561
Epoch (UTC): 30 August 2015 21:51:16
Eccentricity: 0.0591454
inclination: 30.3548°
perigee height: 460 km
apogee height: 1319 km
right ascension of ascending node: 173.5179°
argument of perigee: 100.9359°
revolutions per day: 14.01222202
mean anomaly at epoch: 309.8468°
orbit number at epoch: 59056

The dashed part of the orbit path shows where the satellite is in the earth's shadow,  

DLR